Regional Weather Roundup
Issued by NWS Upton, NY

Current Version | Previous Version | Graphics & Text | Print | Product List | Glossary Off
Versions: 1 2 3 4 5 6 7 8 9 10 11 12 13 14 15 16 17 18 19 20 21 22 23 24 25 26 27 28

000
ASUS41 KOKX 232205
RWROKX

REGIONAL WEATHER ROUNDUP
NATIONAL WEATHER SERVICE NEW YORK NY
600 PM EDT THU OCT 23 2014

NOTE: "FAIR" INDICATES FEW OR NO CLOUDS BELOW 12,000 FEET WITH NO
SIGNIFICANT WEATHER AND/OR OBSTRUCTIONS TO VISIBILITY.

NYZ071-072-176-178-NJZ106-104-232300-
NEW YORK CITY METRO AREA


CITY           SKY/WX    TMP DP  RH WIND       PRES   REMARKS
CENTRAL PARK   CLOUDY    53  47  79 VRB7      29.75R
LAGUARDIA APRT MOCLDY    53  46  77 NW22G32   29.71R
KENNEDY INTL   CLOUDY    54  45  71 N22       29.72R
NEWARK/LIBERTY MOCLDY    53  46  77 NW22G29   29.73R
BRNX BOT. GARD   N/A     52  45  76 N8        29.73F
TETERBORO      CLOUDY    53  47  79 NW10      29.73R
$$

NYZ177-179-078>081-232300-
LONG ISLAND NEW YORK

CITY           SKY/WX    TMP DP  RH WIND       PRES   REMARKS
FARMINGDALE    CLOUDY    53  45  74 N15G23    29.69R
ISLIP          CLOUDY    53  46  77 NW21G30   29.65R
SHIRLEY        CLOUDY    54  49  83 NW16G23   29.65R
WESTHAMPTON    CLOUDY    55  48  77 N20G28    29.63R
MONTAUK POINT    N/A     58  52  80 N18G26    29.58R
$$

NYZ052-065-067-232300-
HUDSON VALLEY

CITY           SKY/WX    TMP DP  RH WIND       PRES   REMARKS
WHITE PLAINS   MOCLDY    49  43  80 NW18G30   29.71R
NEWBURGH       NOT AVBL
MONTGOMERY     CLOUDY    51  47  86 N3        29.76R
POUGHKEEPSIE   CLOUDY    51  44  77 N13G23    29.77R
ALBANY         CLOUDY    47  44  90 N7        29.83S
$$

NJZ001-105-106-008-010-013-015-019>022-104-232300-
NEW JERSEY

CITY           SKY/WX    TMP DP  RH WIND       PRES   REMARKS
NEWARK/LIBERTY MOCLDY    53  46  77 NW22G29   29.73R
TETERBORO      CLOUDY    53  47  79 NW10      29.73R
CALDWELL       CLOUDY    51  44  77 N8        29.76R
MORRISTOWN     CLOUDY    54  46  76 N12G21    29.75R
SOMERVILLE     CLOUDY    53  42  66 N14G24    29.75R
SUSSEX         CLOUDY    53  43  68 NW7G17    29.78R
ANDOVER          N/A     50  43  77 VRB5      29.79R
TRENTON        CLOUDY    53  43  68 N16G28    29.77R
MILLVILLE      CLOUDY    55  45  68 NW14G22   29.78R
ATLANTIC CITY  CLOUDY    53  46  77 NW16      29.75R
WRIGHTSTOWN    CLOUDY    53  45  74 NW17      29.74R
TOMS RIVER     CLOUDY    52  46  82 NW9       29.74R
BELMAR         CLOUDY    52  45  76 NW13G20   29.73R
$$

PAZ047>061-062-071-232300-
EASTERN PENNSYLVANIA

CITY           SKY/WX    TMP DP  RH WIND       PRES   REMARKS
PHILADELPHIA   CLOUDY    56  43  61 N18G25    29.80R
ALLENTOWN      CLOUDY    53  43  68 N12G22    29.81R
SCRANTON       CLOUDY    50  42  74 N10G16    29.87R
$$

CTZ002-004>006-009-010-012-RIZ004-006-007-MAZ004-011-015-232300-
SOUTHERN NEW ENGLAND
 IN CT

CITY           SKY/WX    TMP DP  RH WIND       PRES   REMARKS
BRADLEY INTL   DRIZZLE   54  46  74 N16G25    29.67R
HARTFORD       LGT RAIN  53  47  79 N12G21    29.67R
DANBURY        CLOUDY    49  41  74 N9G17     29.73R
WTRBRY/OXFORD  CLOUDY    48  41  76 N13       29.69R
BRIDGEPORT     PTCLDY    52  45  77 N12       29.66S
MERIDEN        CLOUDY    55  46  71 N17G23    29.67R
NEW HAVEN      CLOUDY    57  47  69 N13G21    29.64R
CHESTER        CLOUDY    52  48  87 N17G26    29.63S
GROTON         CLOUDY    55  49  80 N21G32    29.58R
WILLIMANTIC    LGT RAIN  53  49  86 N9        29.64R

 IN RI

CITY           SKY/WX    TMP DP  RH WIND       PRES   REMARKS
PROVIDENCE     LGT RAIN  54  52  93 N16G28    29.58S
BLOCK ISLAND   CLOUDY    55  50  82 N21G31    29.55R
WESTERLY       LGT RAIN  56  50  80 N18G24    29.58R

 IN MA

CITY           SKY/WX    TMP DP  RH WIND       PRES   REMARKS
BOSTON         CLOUDY    51  51 100 N36       29.61R
WORCESTER      LGT RAIN  49  47  93 N13G25    29.65R FOG
WESTFIELD      LGT RAIN  52  47  83 N18       29.69R
PROVINCETOWN   CLOUDY    57   1  10 NE21G31   29.53R
NANTUCKET      CLOUDY    58  56  93 N9        29.47R
$$

ANZ330-335-338-340-345-350-353-355-232300-
COASTAL MARINE OBSERVATIONS


STATION/POSITION TIME  SKY/WX   TEMP    WIND        PRES    VSBY  WAVE
                                AIR SEA DIR/SP/G                  HT/PER
                 (UTC)          (F)     (DEG/KT/KT) (MB)    (MI)  (FT/S)
NY HARB ENTRANCE NOT AVBL
4S FIRE IS       2200               63                N/A           4/ 9
20S FIRE ISLAND  2200            55 64  340/ 27/ 33 1003.2          7/ 6
23SW MTP         2200                                 N/A           6/ 9
HUDSON CANYON    2200            57 66  320/ 23/ 29 1002.1         10/ 7
EXECUTION ROCKS  2200            54 62  340/ 21/ 31   N/A
WESTERN LI SOUND 2200            54     340/ 19/ 25   N/A           2/ 3
CENTRAL LI SOUND 2100            55 63  340/ 21/ 27   N/A           3/ 3
EASTERN LI SOUND 2100            58 63  360/ 21/ 29   N/A
ROBBINS REEF     2200            53     340/ 16/ 22 1005.3
$$


>>>>>>>>>>>>>>>>>>>>>>>>>>>> KEY <<<<<<<<<<<<<<<<<<<<<<<<<<<
>                                                          <
>     SKY/WX - SKY CONDITION/PRESENT WEATHER               <
>     TMP    - TEMPERATURE IN FAHRENHEIT                   <
>     DP     - DEWPOINT IN FAHRENHEIT                      <
>     RH     - RELATIVE HUMIDITY IN PERCENT                <
>     WIND   - DIRECTION AND SPEED IN MPH                  <
>     PRES   - MEAN SEA LEVEL PRESSURE IN INCHES OF HG     <
>     WCI    - WIND CHILL INDEX                            <
>     VSB    - VISIBILITY IN MILES                         <
>     HX     - HEAT INDEX                                  <
>     TC     - TEMPERATURE IN CELSIUS                      <
>     VRB    - VARIABLE WIND DIRECTION                     <
>                                                          <
>>>>>>>>>>>>>>>>>>>>>>>>>>>> KEY <<<<<<<<<<<<<<<<<<<<<<<<<<<





USA.gov is the U.S. government's official web portal to all federal, state and local government web resources and services.